Tabellarische Ansicht des 11.3.2020


Die einzelnen Werte des Tages

Uhrzeit Temperatur Luftdruck Luftfeuchte Wind Hi-Wind Taupunkt THW Index Wind Chill Heat Index Solar- strahlung Regen

00:00

10.3 C

999.8 hpa

92 %

24.1 km/h aus 118

41.8 km/h aus W

9.1 C

6.8 C

6.6 C

10.5 C

0 W/m

0.25 mm

00:05

10.2 C

999.8 hpa

92 %

20.9 km/h aus 114

30.6 km/h aus WSW

8.9 C

6.9 C

6.8 C

10.3 C

0 W/m

0.25 mm

00:10

10.1 C

999.8 hpa

92 %

22.5 km/h aus 114

35.4 km/h aus W

8.8 C

6.7 C

6.4 C

10.3 C

0 W/m

0.25 mm

00:15

10.0 C

999.9 hpa

93 %

19.3 km/h aus 117

32.2 km/h aus W

8.9 C

7.1 C

6.8 C

10.2 C

0 W/m

0.00 mm

00:20

9.9 C

999.9 hpa

93 %

19.3 km/h aus 117

32.2 km/h aus WSW

8.9 C

7.0 C

6.8 C

10.2 C

0 W/m

0.00 mm

00:25

9.9 C

999.9 hpa

93 %

19.3 km/h aus 118

37.0 km/h aus WNW

8.9 C

7.0 C

6.8 C

10.2 C

0 W/m

0.00 mm

00:30

9.8 C

1000.3 hpa

93 %

20.9 km/h aus 117

32.2 km/h aus W

8.8 C

6.6 C

6.4 C

10.1 C

0 W/m

0.25 mm

00:35

9.7 C

1000.3 hpa

93 %

22.5 km/h aus 113

33.8 km/h aus W

8.6 C

6.3 C

6.1 C

9.9 C

0 W/m

0.00 mm

00:40

9.7 C

1000.3 hpa

93 %

17.7 km/h aus 115

27.4 km/h aus W

8.6 C

6.9 C

6.7 C

9.9 C

0 W/m

0.25 mm

00:45

9.6 C

1000.7 hpa

93 %

16.1 km/h aus 117

29.0 km/h aus W

8.5 C

7.2 C

6.9 C

9.8 C

0 W/m

0.00 mm

00:50

9.6 C

1000.7 hpa

93 %

19.3 km/h aus 117

38.6 km/h aus W

8.5 C

6.6 C

6.3 C

9.8 C

0 W/m

0.25 mm

00:55

9.4 C

1000.7 hpa

93 %

24.1 km/h aus 116

40.2 km/h aus W

8.4 C

5.8 C

5.6 C

9.7 C

0 W/m

0.00 mm

01:00

9.3 C

1000.6 hpa

93 %

17.7 km/h aus 116

32.2 km/h aus W

8.3 C

6.6 C

6.3 C

9.6 C

0 W/m

0.25 mm

01:05

9.3 C

1000.6 hpa

93 %

17.7 km/h aus 114

30.6 km/h aus WSW

8.2 C

6.5 C

6.3 C

9.5 C

0 W/m

0.00 mm

01:10

9.3 C

1000.6 hpa

93 %

14.5 km/h aus 117

24.1 km/h aus W

8.2 C

7.1 C

6.8 C

9.5 C

0 W/m

0.00 mm

01:15

9.2 C

1000.9 hpa

93 %

12.9 km/h aus 117

25.7 km/h aus SW

8.1 C

7.3 C

7.1 C

9.4 C

0 W/m

0.00 mm

01:20

9.2 C

1000.9 hpa

93 %

12.9 km/h aus 116

24.1 km/h aus W

8.1 C

7.3 C

7.1 C

9.4 C

0 W/m

0.00 mm

01:25

9.3 C

1000.9 hpa

93 %

14.5 km/h aus 117

30.6 km/h aus W

8.2 C

7.1 C

6.8 C

9.5 C

0 W/m

0.00 mm

01:30

9.3 C

1001.3 hpa

93 %

12.9 km/h aus 115

24.1 km/h aus WSW

8.2 C

7.4 C

7.2 C

9.5 C

0 W/m

0.00 mm

01:35

9.3 C

1001.3 hpa

93 %

12.9 km/h aus 115

25.7 km/h aus SW

8.2 C

7.4 C

7.2 C

9.5 C

0 W/m

0.00 mm

01:40

9.3 C

1001.3 hpa

93 %

14.5 km/h aus 117

27.4 km/h aus W

8.3 C

7.2 C

6.9 C

9.6 C

0 W/m

0.00 mm

01:45

9.3 C

1001.4 hpa

93 %

16.1 km/h aus 116

29.0 km/h aus WSW

8.3 C

6.8 C

6.6 C

9.6 C

0 W/m

0.00 mm

01:50

9.3 C

1001.4 hpa

93 %

14.5 km/h aus 117

24.1 km/h aus WSW

8.3 C

7.2 C

6.9 C

9.6 C

0 W/m

0.00 mm

01:55

9.3 C

1001.4 hpa

93 %

17.7 km/h aus 116

32.2 km/h aus W

8.2 C

6.5 C

6.3 C

9.5 C

0 W/m

0.00 mm

02:00

9.2 C

1001.6 hpa

93 %

17.7 km/h aus 114

37.0 km/h aus SW

8.1 C

6.4 C

6.2 C

9.4 C

0 W/m

0.00 mm

02:05

9.2 C

1001.6 hpa

93 %

14.5 km/h aus 117

27.4 km/h aus W

8.1 C

6.9 C

6.7 C

9.4 C

0 W/m

0.00 mm

02:10

9.2 C

1001.6 hpa

93 %

17.7 km/h aus 117

29.0 km/h aus WSW

8.1 C

6.4 C

6.2 C

9.4 C

0 W/m

0.00 mm

02:15

9.2 C

1002.0 hpa

92 %

16.1 km/h aus 116

27.4 km/h aus WSW

7.9 C

6.6 C

6.4 C

9.3 C

0 W/m

0.00 mm

02:20

9.1 C

1002.0 hpa

92 %

16.1 km/h aus 116

27.4 km/h aus WSW

7.9 C

6.5 C

6.3 C

9.3 C

0 W/m

0.00 mm

02:25

9.1 C

1002.0 hpa

92 %

19.3 km/h aus 115

35.4 km/h aus WNW

7.9 C

6.0 C

5.8 C

9.3 C

0 W/m

0.00 mm

02:30

9.1 C

1002.1 hpa

92 %

14.5 km/h aus 115

29.0 km/h aus WSW

7.9 C

6.8 C

6.7 C

9.3 C

0 W/m

0.00 mm

02:35

9.1 C

1002.1 hpa

92 %

17.7 km/h aus 117

30.6 km/h aus WSW

7.8 C

6.2 C

6.0 C

9.2 C

0 W/m

0.00 mm

02:40

9.1 C

1002.1 hpa

91 %

11.3 km/h aus 117

19.3 km/h aus WSW

7.7 C

7.5 C

7.3 C

9.2 C

0 W/m

0.00 mm

02:45

9.1 C

1002.5 hpa

91 %

14.5 km/h aus 117

25.7 km/h aus W

7.7 C

6.8 C

6.6 C

9.2 C

0 W/m

0.00 mm

02:50

9.1 C

1002.5 hpa

91 %

16.1 km/h aus 116

27.4 km/h aus WSW

7.7 C

6.4 C

6.3 C

9.2 C

0 W/m

0.00 mm

02:55

9.1 C

1002.5 hpa

91 %

16.1 km/h aus 113

27.4 km/h aus SW

7.7 C

6.4 C

6.3 C

9.2 C

0 W/m

0.00 mm

03:00

9.1 C

1002.7 hpa

90 %

17.7 km/h aus 115

29.0 km/h aus WSW

7.5 C

6.1 C

6.0 C

9.2 C

0 W/m

0.00 mm

03:05

9.0 C

1002.7 hpa

90 %

16.1 km/h aus 116

32.2 km/h aus WSW

7.4 C

6.3 C

6.2 C

9.1 C

0 W/m

0.00 mm

03:10

9.0 C

1002.7 hpa

90 %

12.9 km/h aus 116

27.4 km/h aus W

7.4 C

6.9 C

6.8 C

9.1 C

0 W/m

0.00 mm

03:15

8.9 C

1003.0 hpa

89 %

12.9 km/h aus 117

29.0 km/h aus SW

7.2 C

6.9 C

6.8 C

9.1 C

0 W/m

0.00 mm

03:20

8.9 C

1003.0 hpa

89 %

14.5 km/h aus 115

25.7 km/h aus W

7.2 C

6.6 C

6.4 C

9.1 C

0 W/m

0.00 mm

03:25

8.9 C

1003.0 hpa

88 %

17.7 km/h aus 114

29.0 km/h aus WSW

7.0 C

5.9 C

5.8 C

8.9 C

0 W/m

0.00 mm

03:30

8.9 C

1003.0 hpa

88 %

9.7 km/h aus 117

22.5 km/h aus WSW

7.0 C

7.4 C

7.4 C

8.9 C

0 W/m

0.00 mm

03:35

8.9 C

1003.0 hpa

88 %

14.5 km/h aus 116

24.1 km/h aus W

7.0 C

6.4 C

6.4 C

8.9 C

0 W/m

0.00 mm

03:40

8.9 C

1003.0 hpa

88 %

11.3 km/h aus 117

24.1 km/h aus WSW

7.1 C

7.2 C

7.2 C

9.0 C

0 W/m

0.00 mm

03:45

8.9 C

1003.1 hpa

88 %

11.3 km/h aus 117

22.5 km/h aus WSW

7.1 C

7.2 C

7.2 C

9.0 C

0 W/m

0.00 mm

03:50

8.9 C

1003.1 hpa

88 %

11.3 km/h aus 114

20.9 km/h aus SW

7.1 C

7.2 C

7.2 C

9.0 C

0 W/m

0.00 mm

03:55

8.9 C

1003.1 hpa

88 %

12.9 km/h aus 115

20.9 km/h aus W

7.0 C

6.8 C

6.7 C

8.9 C

0 W/m

0.00 mm

04:00

8.9 C

1003.4 hpa

87 %

11.3 km/h aus 117

20.9 km/h aus W

6.8 C

7.2 C

7.1 C

8.9 C

0 W/m

0.00 mm

04:05

8.9 C

1003.4 hpa

87 %

8.0 km/h aus 117

20.9 km/h aus WSW

6.8 C

7.8 C

7.7 C

8.9 C

0 W/m

0.00 mm

04:10

8.9 C

1003.4 hpa

87 %

6.4 km/h aus 117

16.1 km/h aus WSW

6.8 C

8.2 C

8.1 C

8.9 C

0 W/m

0.00 mm

04:15

8.9 C

1003.4 hpa

87 %

9.7 km/h aus 114

20.9 km/h aus WSW

6.8 C

7.4 C

7.4 C

8.9 C

0 W/m

0.00 mm

04:20

8.9 C

1003.4 hpa

87 %

8.0 km/h aus 114

14.5 km/h aus WSW

6.8 C

7.8 C

7.7 C

8.9 C

0 W/m

0.00 mm

04:25

8.9 C

1003.4 hpa

87 %

6.4 km/h aus 116

17.7 km/h aus WSW

6.9 C

8.2 C

8.2 C

9.0 C

0 W/m

0.00 mm

04:30

8.9 C

1003.6 hpa

87 %

11.3 km/h aus 117

24.1 km/h aus WSW

6.9 C

7.2 C

7.2 C

9.0 C

0 W/m

0.00 mm

04:35

8.9 C

1003.6 hpa

87 %

8.0 km/h aus 117

17.7 km/h aus SW

6.9 C

7.8 C

7.8 C

9.0 C

0 W/m

0.00 mm

04:40

8.9 C

1003.6 hpa

87 %

8.0 km/h aus 117

19.3 km/h aus SW

6.9 C

7.8 C

7.8 C

9.0 C

0 W/m

0.00 mm

04:45

8.9 C

1003.8 hpa

86 %

9.7 km/h aus 115

19.3 km/h aus WSW

6.7 C

7.4 C

7.4 C

8.9 C

0 W/m

0.00 mm

04:50

8.9 C

1003.8 hpa

86 %

8.0 km/h aus 113

16.1 km/h aus SW

6.7 C

7.7 C

7.7 C

8.9 C

0 W/m

0.00 mm

04:55

8.8 C

1003.8 hpa

86 %

8.0 km/h aus 116

17.7 km/h aus W

6.6 C

7.7 C

7.7 C

8.8 C

0 W/m

0.00 mm

05:00

8.8 C

1004.0 hpa

86 %

6.4 km/h aus 117

16.1 km/h aus W

6.6 C

8.1 C

8.1 C

8.8 C

0 W/m

0.00 mm

05:05

8.8 C

1004.0 hpa

86 %

4.8 km/h aus 117

9.7 km/h aus WSW

6.6 C

8.4 C

8.4 C

8.8 C

0 W/m

0.00 mm

05:10

8.8 C

1004.0 hpa

86 %

4.8 km/h aus 117

14.5 km/h aus WSW

6.6 C

8.4 C

8.4 C

8.8 C

0 W/m

0.00 mm

05:15

8.8 C

1004.1 hpa

86 %

6.4 km/h aus 114

14.5 km/h aus SW

6.6 C

8.0 C

8.0 C

8.8 C

0 W/m

0.00 mm

05:20

8.8 C

1004.1 hpa

86 %

6.4 km/h aus 115

14.5 km/h aus SW

6.6 C

8.0 C

8.0 C

8.8 C

0 W/m

0.00 mm

05:25

8.8 C

1004.1 hpa

86 %

6.4 km/h aus 116

14.5 km/h aus SW

6.6 C

8.0 C

8.0 C

8.8 C

0 W/m

0.00 mm

05:30

8.8 C

1004.1 hpa

86 %

6.4 km/h aus 117

12.9 km/h aus WSW

6.6 C

8.0 C

8.0 C

8.8 C

0 W/m

0.00 mm

05:35

8.7 C

1004.1 hpa

86 %

6.4 km/h aus 117

9.7 km/h aus SW

6.5 C

7.9 C

7.9 C

8.7 C

0 W/m

0.00 mm

05:40

8.8 C

1004.1 hpa

86 %

4.8 km/h aus 117

9.7 km/h aus SW

6.6 C

8.4 C

8.4 C

8.8 C

0 W/m

0.00 mm

05:45

8.8 C

1004.5 hpa

86 %

6.4 km/h aus 115

9.7 km/h aus WSW

6.6 C

8.0 C

8.0 C

8.8 C

0 W/m

0.00 mm

05:50

8.8 C

1004.5 hpa

86 %

4.8 km/h aus 114

8.0 km/h aus WSW

6.6 C

8.4 C

8.4 C

8.8 C

0 W/m

0.00 mm

05:55

8.7 C

1004.5 hpa

86 %

6.4 km/h aus 117

9.7 km/h aus SW

6.5 C

7.9 C

7.9 C

8.7 C

0 W/m

0.00 mm

06:00

8.8 C

1004.5 hpa

86 %

6.4 km/h aus 117

9.7 km/h aus SSW

6.6 C

8.0 C

8.0 C

8.8 C

0 W/m

0.00 mm

06:05

8.7 C

1004.5 hpa

87 %

6.4 km/h aus 116

11.3 km/h aus SW

6.7 C

7.9 C

7.9 C

8.8 C

0 W/m

0.00 mm

06:10

8.7 C

1004.5 hpa

87 %

4.8 km/h aus 116

11.3 km/h aus SW

6.7 C

8.4 C

8.4 C

8.8 C

0 W/m

0.00 mm

06:15

8.7 C

1004.6 hpa

87 %

6.4 km/h aus 113

9.7 km/h aus SW

6.7 C

7.9 C

7.9 C

8.8 C

0 W/m

0.00 mm

06:20

8.7 C

1004.6 hpa

86 %

4.8 km/h aus 117

9.7 km/h aus SW

6.5 C

8.4 C

8.4 C

8.7 C

0 W/m

0.00 mm

06:25

8.7 C

1004.6 hpa

86 %

3.2 km/h aus 117

9.7 km/h aus SW

6.5 C

8.7 C

8.7 C

8.7 C

0 W/m

0.00 mm

06:30

8.7 C

1004.6 hpa

86 %

4.8 km/h aus 116

9.7 km/h aus WSW

6.5 C

8.4 C

8.4 C

8.7 C

0 W/m

0.00 mm

06:35

8.7 C

1004.6 hpa

86 %

4.8 km/h aus 117

9.7 km/h aus SW

6.5 C

8.4 C

8.4 C

8.7 C

0 W/m

0.00 mm

06:40

8.7 C

1004.6 hpa

86 %

6.4 km/h aus 115

14.5 km/h aus SW

6.5 C

7.8 C

7.8 C

8.7 C

0 W/m

0.00 mm

06:45

8.7 C

1005.0 hpa

86 %

6.4 km/h aus 115

12.9 km/h aus WSW

6.5 C

7.9 C

7.9 C

8.7 C

0 W/m

0.00 mm

06:50

8.7 C

1005.0 hpa

86 %

6.4 km/h aus 118

12.9 km/h aus SW

6.5 C

7.8 C

7.8 C

8.7 C

0 W/m

0.00 mm

06:55

8.7 C

1005.0 hpa

86 %

6.4 km/h aus 117

11.3 km/h aus SW

6.5 C

7.9 C

7.9 C

8.7 C

0 W/m

0.00 mm

07:00

8.7 C

1005.1 hpa

86 %

6.4 km/h aus 117

11.3 km/h aus SW

6.5 C

7.8 C

7.8 C

8.7 C

6 W/m

0.00 mm

07:05

8.7 C

1005.1 hpa

86 %

6.4 km/h aus 117

11.3 km/h aus SSW

6.5 C

7.9 C

7.9 C

8.7 C

11 W/m

0.00 mm

07:10

8.7 C

1005.1 hpa

86 %

6.4 km/h aus 113

14.5 km/h aus SSW

6.5 C

7.9 C

7.9 C

8.7 C

15 W/m

0.00 mm

07:15

8.8 C

1005.1 hpa

87 %

6.4 km/h aus 116

11.3 km/h aus SW

6.7 C

8.1 C

8.0 C

8.8 C

14 W/m

0.00 mm

07:20

8.8 C

1005.1 hpa

87 %

6.4 km/h aus 117

11.3 km/h aus SSW

6.8 C

8.1 C

8.1 C

8.9 C

13 W/m

0.00 mm

07:25

8.8 C

1005.1 hpa

87 %

3.2 km/h aus 117

8.0 km/h aus SW

6.8 C

8.9 C

8.8 C

8.9 C

23 W/m

0.00 mm

07:30

8.9 C

1005.2 hpa

87 %

6.4 km/h aus 117

11.3 km/h aus SSW

6.8 C

8.2 C

8.1 C

8.9 C

24 W/m

0.00 mm

07:35

8.9 C

1005.2 hpa

87 %

6.4 km/h aus 115

11.3 km/h aus SW

6.8 C

8.2 C

8.1 C

8.9 C

29 W/m

0.00 mm

07:40

8.9 C

1005.2 hpa

87 %

6.4 km/h aus 115

14.5 km/h aus WSW

6.9 C

8.2 C

8.2 C

9.0 C

26 W/m

0.00 mm

07:45

8.9 C

1005.5 hpa

87 %

6.4 km/h aus 116

11.3 km/h aus SSW

6.9 C

8.2 C

8.2 C

9.0 C

27 W/m

0.00 mm

07:50

8.9 C

1005.5 hpa

87 %

6.4 km/h aus 117

11.3 km/h aus SSW

6.9 C

8.2 C

8.2 C

9.0 C

27 W/m

0.00 mm

07:55

9.0 C

1005.5 hpa

88 %

4.8 km/h aus 117

8.0 km/h aus SW

7.1 C

8.7 C

8.7 C

9.1 C

32 W/m

0.00 mm

08:00

9.0 C

1005.6 hpa

88 %

6.4 km/h aus 117

11.3 km/h aus SW

7.1 C

8.3 C

8.2 C

9.1 C

40 W/m

0.00 mm

08:05

9.1 C

1005.6 hpa

88 %

6.4 km/h aus 114

11.3 km/h aus SW

7.2 C

8.3 C

8.3 C

9.1 C

52 W/m

0.00 mm

08:10

9.1 C

1005.6 hpa

88 %

8.0 km/h aus 114

11.3 km/h aus S

7.2 C

8.1 C

7.9 C

9.2 C

56 W/m

0.00 mm

08:15

9.1 C

1005.6 hpa

88 %

6.4 km/h aus 117

14.5 km/h aus SW

7.2 C

8.4 C

8.3 C

9.2 C

56 W/m

0.00 mm

08:20

9.1 C

1005.6 hpa

88 %

6.4 km/h aus 116

14.5 km/h aus SW

7.2 C

8.4 C

8.3 C

9.2 C

50 W/m

0.00 mm

08:25

9.2 C

1005.6 hpa

88 %

4.8 km/h aus 116

9.7 km/h aus SSW

7.3 C

9.0 C

8.9 C

9.3 C

50 W/m

0.00 mm

08:30

9.2 C

1006.0 hpa

88 %

6.4 km/h aus 116

11.3 km/h aus WSW

7.3 C

8.6 C

8.4 C

9.3 C

47 W/m

0.00 mm

08:35

9.2 C

1006.0 hpa

88 %

8.0 km/h aus 114

14.5 km/h aus SSW

7.3 C

8.2 C

8.1 C

9.3 C

46 W/m

0.00 mm

08:40

9.2 C

1006.0 hpa

88 %

8.0 km/h aus 116

16.1 km/h aus SSW

7.3 C

8.2 C

8.1 C

9.3 C

48 W/m

0.00 mm

08:45

9.2 C

1006.1 hpa

88 %

9.7 km/h aus 117

17.7 km/h aus SSW

7.3 C

7.8 C

7.7 C

9.3 C

53 W/m

0.00 mm

08:50

9.2 C

1006.1 hpa

88 %

9.7 km/h aus 115

17.7 km/h aus SSW

7.3 C

7.8 C

7.7 C

9.3 C

63 W/m

0.00 mm

08:55

9.2 C

1006.1 hpa

88 %

9.7 km/h aus 117

19.3 km/h aus S

7.3 C

7.8 C

7.7 C

9.3 C

83 W/m

0.00 mm

09:00

9.2 C

1006.1 hpa

87 %

9.7 km/h aus 115

16.1 km/h aus SSW

7.1 C

7.8 C

7.7 C

9.2 C

101 W/m

0.00 mm

09:05

9.2 C

1006.1 hpa

87 %

9.7 km/h aus 115

19.3 km/h aus SW

7.1 C

7.8 C

7.7 C

9.2 C

98 W/m

0.00 mm

09:10

9.2 C

1006.1 hpa

86 %

12.9 km/h aus 117

22.5 km/h aus SSW

6.9 C

7.1 C

7.1 C

9.2 C

102 W/m

0.00 mm

09:15

9.2 C

1006.4 hpa

86 %

12.9 km/h aus 117

25.7 km/h aus SSW

6.9 C

7.1 C

7.1 C

9.2 C

96 W/m

0.00 mm

09:20

9.1 C

1006.4 hpa

85 %

11.3 km/h aus 116

19.3 km/h aus SSW

6.7 C

7.4 C

7.4 C

9.1 C

95 W/m

0.00 mm

09:25

9.2 C

1006.4 hpa

84 %

12.9 km/h aus 114

24.1 km/h aus SSW

6.6 C

7.1 C

7.1 C

9.2 C

118 W/m

0.00 mm

09:30

9.2 C

1006.6 hpa

83 %

9.7 km/h aus 114

20.9 km/h aus SSW

6.4 C

7.7 C

7.7 C

9.2 C

119 W/m

0.00 mm

09:35

9.2 C

1006.6 hpa

83 %

8.0 km/h aus 117

17.7 km/h aus SSW

6.5 C

8.1 C

8.1 C

9.2 C

126 W/m

0.00 mm

09:40

9.2 C

1006.6 hpa

83 %

9.7 km/h aus 117

17.7 km/h aus SW

6.5 C

7.8 C

7.8 C

9.2 C

102 W/m

0.00 mm

09:45

9.2 C

1006.9 hpa

83 %

8.0 km/h aus 116

16.1 km/h aus SSW

6.5 C

8.1 C

8.1 C

9.2 C

104 W/m

0.00 mm

09:50

9.2 C

1006.9 hpa

84 %

9.7 km/h aus 117

16.1 km/h aus SW

6.7 C

7.8 C

7.8 C

9.2 C

102 W/m

0.00 mm

09:55

9.2 C

1006.9 hpa

84 %

11.3 km/h aus 112

19.3 km/h aus SSW

6.6 C

7.4 C

7.4 C

9.2 C

125 W/m

0.00 mm

10:00

9.2 C

1007.1 hpa

84 %

9.7 km/h aus 115

16.1 km/h aus SSW

6.6 C

7.7 C

7.7 C

9.2 C

122 W/m

0.00 mm

10:05

9.2 C

1007.1 hpa

84 %

9.7 km/h aus 118

19.3 km/h aus S

6.6 C

7.7 C

7.7 C

9.2 C

122 W/m

0.00 mm

10:10

9.2 C

1007.1 hpa

84 %

11.3 km/h aus 116

17.7 km/h aus SW

6.6 C

7.4 C

7.4 C

9.2 C

138 W/m

0.00 mm

10:15

9.2 C

1006.9 hpa

85 %

9.7 km/h aus 116

17.7 km/h aus SW

6.8 C

7.7 C

7.7 C

9.2 C

159 W/m

0.00 mm

10:20

9.1 C

1006.9 hpa

85 %

9.7 km/h aus 116

17.7 km/h aus SSW

6.7 C

7.7 C

7.7 C

9.1 C

184 W/m

0.00 mm

10:25

9.2 C

1006.9 hpa

85 %

8.0 km/h aus 113

16.1 km/h aus SSW

6.8 C

8.1 C

8.1 C

9.2 C

178 W/m

0.00 mm

10:30

9.3 C

1007.1 hpa

85 %

8.0 km/h aus 117

14.5 km/h aus SSW

6.9 C

8.3 C

8.2 C

9.4 C

173 W/m

0.00 mm

10:35

9.3 C

1007.1 hpa

84 %

11.3 km/h aus 117

20.9 km/h aus SSW

6.8 C

7.7 C

7.7 C

9.3 C

243 W/m

0.00 mm

10:40

9.3 C

1007.1 hpa

84 %

12.9 km/h aus 116

20.9 km/h aus SSW

6.8 C

7.3 C

7.3 C

9.3 C

192 W/m

0.00 mm

10:45

9.3 C

1007.1 hpa

85 %

9.7 km/h aus 117

19.3 km/h aus SW

6.9 C

8.0 C

7.9 C

9.4 C

199 W/m

0.00 mm

10:50

9.4 C

1007.1 hpa

85 %

11.3 km/h aus 114

17.7 km/h aus SW

7.0 C

7.8 C

7.8 C

9.5 C

214 W/m

0.00 mm

10:55

9.5 C

1007.1 hpa

85 %

11.3 km/h aus 116

19.3 km/h aus SSW

7.1 C

7.9 C

7.8 C

9.6 C

212 W/m

0.00 mm

11:00

9.6 C

1007.2 hpa

85 %

8.0 km/h aus 117

16.1 km/h aus SSW

7.2 C

8.6 C

8.6 C

9.7 C

227 W/m

0.00 mm

11:05

9.6 C

1007.2 hpa

85 %

11.3 km/h aus 116

22.5 km/h aus SW

7.2 C

8.1 C

8.0 C

9.7 C

217 W/m

0.00 mm

11:10

9.5 C

1007.2 hpa

85 %

12.9 km/h aus 118

24.1 km/h aus SW

7.1 C

7.5 C

7.4 C

9.6 C

204 W/m

0.00 mm

11:15

9.6 C

1007.4 hpa

85 %

12.9 km/h aus 115

24.1 km/h aus SSW

7.2 C

7.7 C

7.6 C

9.7 C

257 W/m

0.00 mm

11:20

9.8 C

1007.4 hpa

86 %

11.3 km/h aus 115

19.3 km/h aus SSW

7.5 C

8.2 C

8.2 C

9.8 C

272 W/m

0.00 mm

11:25

9.8 C

1007.4 hpa

85 %

12.9 km/h aus 116

27.4 km/h aus SSW

7.4 C

7.8 C

7.8 C

9.8 C

245 W/m

0.00 mm

11:30

9.8 C

1007.1 hpa

85 %

14.5 km/h aus 117

22.5 km/h aus SW

7.4 C

7.6 C

7.5 C

9.9 C

355 W/m

0.00 mm

11:35

10.2 C

1007.1 hpa

86 %

11.3 km/h aus 117

19.3 km/h aus SSW

7.9 C

8.7 C

8.7 C

10.2 C

421 W/m

0.00 mm

11:40

10.4 C

1007.1 hpa

85 %

11.3 km/h aus 116

20.9 km/h aus SW

8.0 C

9.0 C

9.0 C

10.4 C

308 W/m

0.00 mm

11:45

10.8 C

1007.2 hpa

86 %

9.7 km/h aus 114

22.5 km/h aus SSW

8.5 C

9.6 C

9.6 C

10.8 C

509 W/m

0.00 mm

11:50

10.7 C

1007.2 hpa

83 %

12.9 km/h aus 116

24.1 km/h aus S

7.9 C

8.8 C

8.8 C

10.7 C

377 W/m

0.00 mm

11:55

10.6 C

1007.2 hpa

86 %

14.5 km/h aus 117

24.1 km/h aus S

8.4 C

8.4 C

8.4 C

10.6 C

305 W/m

0.00 mm

12:00

10.7 C

1007.3 hpa

85 %

12.9 km/h aus 117

20.9 km/h aus S

8.2 C

8.8 C

8.8 C

10.7 C

432 W/m

0.00 mm

12:05

10.8 C

1007.3 hpa

84 %

12.9 km/h aus 116

24.1 km/h aus S

8.2 C

9.0 C

9.0 C

10.8 C

315 W/m

0.00 mm

12:10

10.7 C

1007.3 hpa

84 %

9.7 km/h aus 113

19.3 km/h aus SW

8.1 C

9.6 C

9.6 C

10.7 C

300 W/m

0.00 mm

12:15

10.9 C

1007.6 hpa

84 %

9.7 km/h aus 117

20.9 km/h aus WSW

8.3 C

9.8 C

9.8 C

10.9 C

238 W/m

0.00 mm

12:20

10.7 C

1007.6 hpa

83 %

12.9 km/h aus 117

24.1 km/h aus SSW

8.0 C

8.9 C

8.9 C

10.7 C

231 W/m

0.00 mm

12:25

10.7 C

1007.6 hpa

84 %

12.9 km/h aus 117

20.9 km/h aus SW

8.1 C

8.9 C

8.9 C

10.7 C

437 W/m

0.00 mm

12:30

10.9 C

1007.6 hpa

82 %

14.5 km/h aus 117

25.7 km/h aus SSW

8.0 C

8.8 C

8.8 C

10.9 C

412 W/m

0.00 mm

12:35

11.2 C

1007.6 hpa

83 %

11.3 km/h aus 114

19.3 km/h aus WSW

8.4 C

9.8 C

9.8 C

11.1 C

359 W/m

0.00 mm

12:40

11.5 C

1007.6 hpa

81 %

11.3 km/h aus 116

25.7 km/h aus WSW

8.4 C

10.1 C

10.2 C

11.4 C

304 W/m

0.00 mm

12:45

11.3 C

1007.6 hpa

80 %

17.7 km/h aus 117

29.0 km/h aus SW

8.0 C

8.5 C

8.6 C

11.2 C

251 W/m

0.00 mm

12:50

11.6 C

1007.6 hpa

80 %

16.1 km/h aus 117

27.4 km/h aus SW

8.3 C

9.1 C

9.3 C

11.4 C

465 W/m

0.00 mm

12:55

12.3 C

1007.6 hpa

79 %

14.5 km/h aus 117

22.5 km/h aus SW

8.7 C

10.2 C

10.4 C

12.1 C

628 W/m

0.00 mm

13:00

12.3 C

1007.5 hpa

78 %

11.3 km/h aus 114

22.5 km/h aus SW

8.6 C

10.9 C

11.2 C

12.1 C

442 W/m

0.00 mm

13:05

12.4 C

1007.5 hpa

76 %

12.9 km/h aus 115

22.5 km/h aus SW

8.3 C

10.7 C

10.9 C

12.1 C

517 W/m

0.00 mm

13:10

12.3 C

1007.5 hpa

77 %

11.3 km/h aus 117

30.6 km/h aus SW

8.4 C

11.0 C

11.2 C

12.1 C

259 W/m

0.00 mm

13:15

12.1 C

1007.6 hpa

76 %

12.9 km/h aus 117

27.4 km/h aus WSW

8.0 C

10.3 C

10.6 C

11.8 C

219 W/m

0.00 mm

13:20

11.9 C

1007.6 hpa

77 %

12.9 km/h aus 117

22.5 km/h aus SW

8.0 C

10.2 C

10.4 C

11.7 C

227 W/m

0.00 mm

13:25

12.4 C

1007.6 hpa

76 %

9.7 km/h aus 113

19.3 km/h aus SSW

8.3 C

11.3 C

11.6 C

12.2 C

547 W/m

0.00 mm

13:30

12.8 C

1007.5 hpa

73 %

12.9 km/h aus 116

27.4 km/h aus SW

8.1 C

11.1 C

11.4 C

12.5 C

552 W/m

0.00 mm

13:35

12.7 C

1007.5 hpa

72 %

12.9 km/h aus 117

24.1 km/h aus SSW

7.8 C

10.9 C

11.3 C

12.3 C

385 W/m

0.00 mm

13:40

12.6 C

1007.5 hpa

71 %

12.9 km/h aus 117

25.7 km/h aus SSW

7.5 C

10.8 C

11.2 C

12.2 C

547 W/m

0.00 mm

13:45

12.9 C

1007.4 hpa

72 %

14.5 km/h aus 116

24.1 km/h aus W

8.0 C

10.7 C

11.1 C

12.5 C

568 W/m

0.00 mm

13:50

13.1 C

1007.4 hpa

70 %

12.9 km/h aus 113

24.1 km/h aus W

7.8 C

11.3 C

11.8 C

12.7 C

512 W/m

0.00 mm

13:55

13.2 C

1007.4 hpa

70 %

9.7 km/h aus 117

22.5 km/h aus WSW

7.8 C

12.0 C

12.4 C

12.7 C

534 W/m

0.00 mm

14:00

12.9 C

1007.1 hpa

71 %

11.3 km/h aus 117

20.9 km/h aus WSW

7.8 C

11.6 C

12.0 C

12.6 C

170 W/m

0.00 mm

14:05

12.9 C

1007.1 hpa

72 %

9.7 km/h aus 116

19.3 km/h aus WNW

8.0 C

11.7 C

12.1 C

12.5 C

550 W/m

0.00 mm

14:10

13.3 C

1007.1 hpa

71 %

6.4 km/h aus 115

12.9 km/h aus SSW

8.2 C

12.8 C

13.2 C

12.9 C

410 W/m

0.00 mm

14:15

13.3 C

1007.1 hpa

70 %

8.0 km/h aus 115

19.3 km/h aus WSW

7.9 C

12.4 C

12.9 C

12.8 C

431 W/m

0.00 mm

14:20

13.4 C

1007.1 hpa

67 %

14.5 km/h aus 118

27.4 km/h aus SSW

7.4 C

11.2 C

11.7 C

12.9 C

520 W/m

0.00 mm

14:25

13.7 C

1007.1 hpa

67 %

12.9 km/h aus 117

25.7 km/h aus SW

7.6 C

11.9 C

12.4 C

13.2 C

507 W/m

0.00 mm

14:30

13.7 C

1006.9 hpa

67 %

14.5 km/h aus 117

25.7 km/h aus SSW

7.7 C

11.6 C

12.1 C

13.2 C

525 W/m

0.00 mm

14:35

13.4 C

1006.9 hpa

68 %

14.5 km/h aus 114

25.7 km/h aus S

7.7 C

11.3 C

11.8 C

12.9 C

440 W/m

0.00 mm

14:40

13.3 C

1006.9 hpa

69 %

11.3 km/h aus 117

20.9 km/h aus SW

7.7 C

11.9 C

12.4 C

12.8 C

360 W/m

0.00 mm

14:45

13.7 C

1006.8 hpa

69 %

12.9 km/h aus 117

25.7 km/h aus S

8.1 C

12.0 C

12.4 C

13.2 C

368 W/m

0.00 mm

14:50

13.3 C

1006.8 hpa

70 %

12.9 km/h aus 117

27.4 km/h aus SW

8.0 C

11.6 C

12.1 C

12.9 C

250 W/m

0.00 mm

14:55

13.0 C

1006.8 hpa

71 %

14.5 km/h aus 115

32.2 km/h aus SSW

7.9 C

10.9 C

11.3 C

12.6 C

261 W/m

0.00 mm

15:00

13.1 C

1006.7 hpa

71 %

12.9 km/h aus 115

25.7 km/h aus WSW

7.9 C

11.3 C

11.7 C

12.7 C

249 W/m

0.00 mm

15:05

13.3 C

1006.7 hpa

72 %

11.3 km/h aus 117

22.5 km/h aus SW

8.3 C

12.0 C

12.4 C

12.9 C

304 W/m

0.00 mm

15:10

13.4 C

1006.7 hpa

69 %

14.5 km/h aus 117

27.4 km/h aus SW

7.8 C

11.3 C

11.7 C

12.9 C

313 W/m

0.00 mm

15:15

13.4 C

1006.8 hpa

69 %

11.3 km/h aus 116

24.1 km/h aus SSW

7.9 C

12.1 C

12.6 C

13.0 C

309 W/m

0.00 mm

15:20

13.5 C

1006.8 hpa

68 %

14.5 km/h aus 115

25.7 km/h aus SW

7.7 C

11.3 C

11.8 C

13.0 C

357 W/m

0.00 mm

15:25

13.5 C

1006.8 hpa

68 %

14.5 km/h aus 116

30.6 km/h aus S

7.7 C

11.3 C

11.8 C

13.0 C

242 W/m

0.00 mm

15:30

13.3 C

1006.6 hpa

66 %

16.1 km/h aus 117

33.8 km/h aus SW

7.1 C

10.7 C

11.3 C

12.8 C

154 W/m

0.00 mm

15:35

13.3 C

1006.6 hpa

67 %

12.9 km/h aus 117

24.1 km/h aus SW

7.3 C

11.5 C

12.0 C

12.8 C

130 W/m

0.00 mm

15:40

13.2 C

1006.6 hpa

67 %

14.5 km/h aus 115

27.4 km/h aus SW

7.2 C

10.9 C

11.4 C

12.7 C

156 W/m

0.00 mm

15:45

13.2 C

1006.7 hpa

68 %

12.9 km/h aus 114

24.1 km/h aus SW

7.4 C

11.3 C

11.8 C

12.7 C

170 W/m

0.00 mm

15:50

13.2 C

1006.7 hpa

69 %

9.7 km/h aus 115

19.3 km/h aus SW

7.7 C

12.1 C

12.6 C

12.8 C

160 W/m

0.00 mm

15:55

13.2 C

1006.7 hpa

69 %

9.7 km/h aus 117

20.9 km/h aus SSW

7.7 C

12.1 C

12.6 C

12.8 C

165 W/m

0.00 mm

16:00

13.2 C

1006.6 hpa

69 %

11.3 km/h aus 117

24.1 km/h aus S

7.6 C

11.8 C

12.2 C

12.7 C

189 W/m

0.00 mm

16:05

13.2 C

1006.6 hpa

69 %

11.3 km/h aus 115

20.9 km/h aus SW

7.6 C

11.8 C

12.2 C

12.7 C

159 W/m

0.00 mm

16:10

13.1 C

1006.6 hpa

68 %

16.1 km/h aus 114

29.0 km/h aus SW

7.3 C

10.5 C

11.0 C

12.6 C

139 W/m

0.00 mm

16:15

13.1 C

1006.6 hpa

68 %

16.1 km/h aus 116

27.4 km/h aus SSW

7.3 C

10.5 C

11.0 C

12.6 C

150 W/m

0.00 mm

16:20

13.2 C

1006.6 hpa

68 %

9.7 km/h aus 117

22.5 km/h aus SSW

7.4 C

11.9 C

12.4 C

12.7 C

187 W/m

0.00 mm

16:25

13.2 C

1006.6 hpa

68 %

12.9 km/h aus 117

20.9 km/h aus SW

7.4 C

11.3 C

11.8 C

12.7 C

158 W/m

0.00 mm

16:30

13.1 C

1006.6 hpa

68 %

16.1 km/h aus 118

35.4 km/h aus SSW

7.3 C

10.5 C

11.0 C

12.6 C

147 W/m

0.00 mm

16:35

13.1 C

1006.6 hpa

68 %

17.7 km/h aus 113

33.8 km/h aus SW

7.3 C

10.2 C

10.7 C

12.6 C

112 W/m

0.00 mm

16:40

13.1 C

1006.6 hpa

69 %

14.5 km/h aus 117

24.1 km/h aus S

7.5 C

10.9 C

11.3 C

12.6 C

134 W/m

0.00 mm

16:45

13.1 C

1006.6 hpa

69 %

14.5 km/h aus 117

27.4 km/h aus SSW

7.5 C

10.9 C

11.3 C

12.6 C

141 W/m

0.00 mm

16:50

13.1 C

1006.6 hpa

70 %

11.3 km/h aus 115

25.7 km/h aus SW

7.7 C

11.7 C

12.1 C

12.6 C

108 W/m

0.00 mm

16:55

13.0 C

1006.6 hpa

70 %

11.3 km/h aus 116

22.5 km/h aus SW

7.7 C

11.6 C

12.1 C

12.6 C

89 W/m

0.00 mm

17:00

12.9 C

1006.6 hpa

71 %

9.7 km/h aus 113

22.5 km/h aus SSE

7.8 C

11.8 C

12.2 C

12.6 C

77 W/m

0.00 mm

17:05

12.9 C

1006.6 hpa

71 %

11.3 km/h aus 117

19.3 km/h aus SSW

7.8 C

11.6 C

12.0 C

12.6 C

85 W/m

0.00 mm

17:10

12.9 C

1006.6 hpa

71 %

11.3 km/h aus 117

25.7 km/h aus SW

7.8 C

11.6 C

12.0 C

12.6 C

83 W/m

0.00 mm

17:15

13.0 C

1006.6 hpa

71 %

6.4 km/h aus 117

14.5 km/h aus SSW

7.9 C

12.4 C

12.8 C

12.6 C

44 W/m

0.00 mm

17:20

12.9 C

1006.6 hpa

72 %

9.7 km/h aus 115

22.5 km/h aus SW

8.0 C

11.8 C

12.2 C

12.6 C

40 W/m

0.00 mm

17:25

12.9 C

1006.6 hpa

72 %

11.3 km/h aus 114

25.7 km/h aus SW

8.0 C

11.6 C

12.0 C

12.6 C

32 W/m

0.00 mm

17:30

12.9 C

1006.6 hpa

72 %

12.9 km/h aus 117

24.1 km/h aus SW

8.0 C

11.1 C

11.5 C

12.5 C

28 W/m

0.00 mm

17:35

12.8 C

1006.6 hpa

73 %

11.3 km/h aus 117

22.5 km/h aus SSW

8.1 C

11.5 C

11.8 C

12.5 C

36 W/m

0.00 mm

17:40

12.8 C

1006.6 hpa

74 %

12.9 km/h aus 117

24.1 km/h aus S

8.3 C

11.1 C

11.4 C

12.5 C

43 W/m

0.00 mm

17:45

12.8 C

1006.5 hpa

74 %

11.3 km/h aus 116

19.3 km/h aus SSE

8.3 C

11.4 C

11.8 C

12.4 C

35 W/m

0.00 mm

17:50

12.7 C

1006.5 hpa

75 %

12.9 km/h aus 114

25.7 km/h aus S

8.4 C

11.1 C

11.3 C

12.4 C

30 W/m

0.00 mm

17:55

12.7 C

1006.5 hpa

75 %

9.7 km/h aus 116

19.3 km/h aus SW

8.3 C

11.6 C

11.9 C

12.4 C

31 W/m

0.00 mm

18:00

12.6 C

1006.5 hpa

75 %

11.3 km/h aus 117

20.9 km/h aus SSW

8.2 C

11.2 C

11.5 C

12.3 C

26 W/m

0.00 mm

18:05

12.5 C

1006.5 hpa

76 %

11.3 km/h aus 117

20.9 km/h aus SW

8.4 C

11.2 C

11.4 C

12.2 C

25 W/m

0.00 mm

18:10

12.4 C

1006.5 hpa

76 %

14.5 km/h aus 117

24.1 km/h aus SSW

8.3 C

10.3 C

10.6 C

12.2 C

17 W/m

0.00 mm

18:15

12.4 C

1006.6 hpa

77 %

12.9 km/h aus 113

24.1 km/h aus SSW

8.5 C

10.7 C

10.9 C

12.2 C

9 W/m

0.00 mm

18:20

12.3 C

1006.6 hpa

77 %

12.9 km/h aus 116

20.9 km/h aus SSE

8.4 C

10.6 C

10.8 C

12.1 C

6 W/m

0.00 mm

18:25

12.2 C

1006.6 hpa

78 %

8.0 km/h aus 116

16.1 km/h aus SSW

8.5 C

11.4 C

11.6 C

12.0 C

3 W/m

0.00 mm

18:30

12.1 C

1006.6 hpa

78 %

12.9 km/h aus 116

24.1 km/h aus SW

8.4 C

10.4 C

10.6 C

11.9 C

0 W/m

0.00 mm

18:35

12.1 C

1006.6 hpa

78 %

9.7 km/h aus 118

19.3 km/h aus SSW

8.3 C

10.9 C

11.1 C

11.8 C

0 W/m

0.00 mm

18:40

12.0 C

1006.6 hpa

79 %

6.4 km/h aus 115

19.3 km/h aus SSW

8.5 C

11.5 C

11.7 C

11.8 C

0 W/m

0.00 mm

18:45

11.9 C

1006.6 hpa

79 %

8.0 km/h aus 115

17.7 km/h aus SSE

8.4 C

11.1 C

11.3 C

11.8 C

0 W/m

0.00 mm

18:50

11.9 C

1006.6 hpa

79 %

12.9 km/h aus 117

19.3 km/h aus S

8.4 C

10.2 C

10.3 C

11.7 C

0 W/m

0.00 mm

18:55

11.8 C

1006.6 hpa

80 %

17.7 km/h aus 117

29.0 km/h aus S

8.5 C

9.1 C

9.2 C

11.7 C

0 W/m

0.00 mm

19:00

11.8 C

1006.4 hpa

80 %

12.9 km/h aus 115

25.7 km/h aus S

8.5 C

10.1 C

10.3 C

11.7 C

0 W/m

0.00 mm

19:05

11.8 C

1006.4 hpa

81 %

12.9 km/h aus 115

25.7 km/h aus S

8.7 C

10.1 C

10.3 C

11.7 C

0 W/m

0.00 mm

19:10

11.8 C

1006.4 hpa

81 %

16.1 km/h aus 115

27.4 km/h aus S

8.6 C

9.3 C

9.4 C

11.6 C

0 W/m

0.00 mm

19:15

11.7 C

1006.4 hpa

81 %

11.3 km/h aus 117

20.9 km/h aus S

8.6 C

10.3 C

10.5 C

11.6 C

0 W/m

0.00 mm

19:20

11.7 C

1006.4 hpa

82 %

16.1 km/h aus 117

32.2 km/h aus S

8.7 C

9.3 C

9.4 C

11.6 C

0 W/m

0.00 mm

19:25

11.7 C

1006.4 hpa

82 %

14.5 km/h aus 117

30.6 km/h aus SSW

8.7 C

9.6 C

9.7 C

11.6 C

0 W/m

0.00 mm

19:30

11.7 C

1006.5 hpa

82 %

14.5 km/h aus 116

29.0 km/h aus SW

8.7 C

9.6 C

9.7 C

11.6 C

0 W/m

0.00 mm

19:35

11.6 C

1006.5 hpa

82 %

14.5 km/h aus 113

27.4 km/h aus SSW

8.6 C

9.5 C

9.6 C

11.5 C

0 W/m

0.00 mm

19:40

11.6 C

1006.5 hpa

82 %

14.5 km/h aus 118

27.4 km/h aus SSW

8.6 C

9.4 C

9.6 C

11.4 C

0 W/m

0.00 mm

19:45

11.5 C

1006.2 hpa

83 %

12.9 km/h aus 116

22.5 km/h aus SSW

8.7 C

9.8 C

9.8 C

11.4 C

0 W/m

0.00 mm

19:50

11.4 C

1006.2 hpa

83 %

12.9 km/h aus 117

22.5 km/h aus SSW

8.7 C

9.7 C

9.8 C

11.4 C

0 W/m

0.00 mm

19:55

11.4 C

1006.2 hpa

83 %

11.3 km/h aus 117

19.3 km/h aus S

8.7 C

10.1 C

10.2 C

11.4 C

0 W/m

0.00 mm

20:00

11.4 C

1006.1 hpa

83 %

9.7 km/h aus 114

19.3 km/h aus SSW

8.6 C

10.3 C

10.3 C

11.3 C

0 W/m

0.00 mm

20:05

11.3 C

1006.1 hpa

84 %

11.3 km/h aus 115

22.5 km/h aus SSW

8.7 C

10.0 C

10.1 C

11.3 C

0 W/m

0.00 mm

20:10

11.3 C

1006.1 hpa

84 %

14.5 km/h aus 116

24.1 km/h aus SSW

8.7 C

9.2 C

9.2 C

11.2 C

0 W/m

0.00 mm

20:15

11.2 C

1006.0 hpa

84 %

12.9 km/h aus 117

22.5 km/h aus S

8.6 C

9.4 C

9.5 C

11.2 C

0 W/m

0.00 mm

20:20

11.2 C

1006.0 hpa

84 %

11.3 km/h aus 117

22.5 km/h aus SSE

8.6 C

9.8 C

9.8 C

11.1 C

0 W/m

0.00 mm

20:25

11.2 C

1006.0 hpa

84 %

14.5 km/h aus 115

27.4 km/h aus SSW

8.6 C

9.0 C

9.1 C

11.1 C

0 W/m

0.00 mm

20:30

11.2 C

1005.5 hpa

84 %

11.3 km/h aus 115

20.9 km/h aus S

8.6 C

9.8 C

9.8 C

11.1 C

0 W/m

0.00 mm

20:35

11.2 C

1005.5 hpa

84 %

12.9 km/h aus 116

22.5 km/h aus S

8.6 C

9.4 C

9.4 C

11.1 C

0 W/m

0.00 mm

20:40

11.2 C

1005.5 hpa

85 %

14.5 km/h aus 117

22.5 km/h aus SSW

8.7 C

9.1 C

9.1 C

11.2 C

0 W/m

0.00 mm

20:45

11.1 C

1005.0 hpa

85 %

16.1 km/h aus 118

25.7 km/h aus S

8.7 C

8.7 C

8.7 C

11.1 C

0 W/m

0.00 mm

20:50

11.1 C

1005.0 hpa

85 %

14.5 km/h aus 116

22.5 km/h aus S

8.6 C

8.9 C

8.9 C

11.1 C

0 W/m

0.00 mm

20:55

11.0 C

1005.0 hpa

85 %

14.5 km/h aus 115

27.4 km/h aus S

8.6 C

8.9 C

8.9 C

11.0 C

0 W/m

0.00 mm

21:00

10.9 C

1004.6 hpa

85 %

14.5 km/h aus 115

22.5 km/h aus SSE

8.5 C

8.8 C

8.8 C

10.9 C

0 W/m

0.00 mm

21:05

10.9 C

1004.6 hpa

86 %

11.3 km/h aus 117

22.5 km/h aus S

8.7 C

9.6 C

9.6 C

10.9 C

0 W/m

0.00 mm

21:10

10.9 C

1004.6 hpa

86 %

12.9 km/h aus 117

24.1 km/h aus SSE

8.7 C

9.2 C

9.2 C

10.9 C

0 W/m

0.00 mm

21:15

11.0 C

1004.5 hpa

87 %

14.5 km/h aus 117

30.6 km/h aus S

8.9 C

8.9 C

8.9 C

11.1 C

0 W/m

0.00 mm

21:20

11.0 C

1004.5 hpa

87 %

11.3 km/h aus 115

19.3 km/h aus S

8.9 C

9.7 C

9.7 C

11.1 C

0 W/m

0.00 mm

21:25

11.1 C

1004.5 hpa

87 %

16.1 km/h aus 115

27.4 km/h aus S

9.0 C

8.7 C

8.6 C

11.1 C

0 W/m

0.00 mm

21:30

11.2 C

1004.5 hpa

88 %

17.7 km/h aus 114

29.0 km/h aus S

9.3 C

8.5 C

8.4 C

11.2 C

0 W/m

0.00 mm

21:35

11.2 C

1004.5 hpa

88 %

17.7 km/h aus 117

29.0 km/h aus SW

9.3 C

8.6 C

8.5 C

11.3 C

0 W/m

0.00 mm

21:40

11.3 C

1004.5 hpa

88 %

19.3 km/h aus 117

30.6 km/h aus S

9.4 C

8.3 C

8.3 C

11.3 C

0 W/m

0.00 mm

21:45

11.4 C

1004.4 hpa

87 %

19.3 km/h aus 115

30.6 km/h aus S

9.4 C

8.5 C

8.5 C

11.4 C

0 W/m

0.00 mm

21:50

11.6 C

1004.4 hpa

87 %

17.7 km/h aus 115

29.0 km/h aus S

9.5 C

8.9 C

8.9 C

11.6 C

0 W/m

0.00 mm

21:55

11.7 C

1004.4 hpa

87 %

22.5 km/h aus 116

37.0 km/h aus SW

9.6 C

8.3 C

8.3 C

11.7 C

0 W/m

0.00 mm

22:00

11.8 C

1004.1 hpa

86 %

19.3 km/h aus 117

41.8 km/h aus SSW

9.6 C

8.9 C

8.9 C

11.8 C

0 W/m

0.00 mm

22:05

11.9 C

1004.1 hpa

86 %

20.9 km/h aus 116

30.6 km/h aus SSW

9.7 C

8.7 C

8.8 C

11.9 C

0 W/m

0.00 mm

22:10

12.1 C

1004.1 hpa

85 %

17.7 km/h aus 115

29.0 km/h aus S

9.6 C

9.4 C

9.4 C

12.0 C

0 W/m

0.00 mm

22:15

12.1 C

1003.9 hpa

85 %

19.3 km/h aus 114

33.8 km/h aus SSW

9.6 C

9.1 C

9.2 C

12.0 C

0 W/m

0.00 mm

22:20

12.1 C

1003.9 hpa

85 %

17.7 km/h aus 117

29.0 km/h aus S

9.7 C

9.5 C

9.6 C

12.1 C

0 W/m

0.00 mm

22:25

12.2 C

1003.9 hpa

85 %

19.3 km/h aus 116

32.2 km/h aus S

9.7 C

9.3 C

9.3 C

12.1 C

0 W/m

0.00 mm

22:30

12.2 C

1004.0 hpa

85 %

19.3 km/h aus 117

33.8 km/h aus SSW

9.8 C

9.3 C

9.4 C

12.2 C

0 W/m

0.00 mm

22:35

12.3 C

1004.0 hpa

85 %

17.7 km/h aus 115

30.6 km/h aus S

9.8 C

9.7 C

9.7 C

12.2 C

0 W/m

0.00 mm

22:40

12.3 C

1004.0 hpa

85 %

16.1 km/h aus 114

32.2 km/h aus S

9.8 C

10.0 C

10.1 C

12.2 C

0 W/m

0.00 mm

22:45

12.3 C

1003.8 hpa

86 %

19.3 km/h aus 117

32.2 km/h aus S

10.0 C

9.4 C

9.4 C

12.2 C

0 W/m

0.00 mm

22:50

12.2 C

1003.8 hpa

86 %

19.3 km/h aus 116

35.4 km/h aus S

9.9 C

9.3 C

9.4 C

12.2 C

0 W/m

0.25 mm

22:55

12.2 C

1003.8 hpa

87 %

14.5 km/h aus 117

30.6 km/h aus SSW

10.1 C

10.3 C

10.3 C

12.2 C

0 W/m

0.00 mm

23:00

12.2 C

1003.5 hpa

87 %

19.3 km/h aus 117

32.2 km/h aus SSW

10.1 C

9.3 C

9.3 C

12.2 C

0 W/m

0.00 mm

23:05

12.1 C

1003.5 hpa

87 %

17.7 km/h aus 114

27.4 km/h aus S

10.0 C

9.6 C

9.6 C

12.1 C

0 W/m

0.00 mm

23:10

12.1 C

1003.5 hpa

88 %

19.3 km/h aus 116

33.8 km/h aus S

10.2 C

9.3 C

9.3 C

12.1 C

0 W/m

0.00 mm

23:15

12.1 C

1003.0 hpa

88 %

16.1 km/h aus 116

29.0 km/h aus SSW

10.2 C

9.9 C

9.9 C

12.1 C

0 W/m

0.00 mm

23:20

12.1 C

1003.0 hpa

88 %

17.7 km/h aus 117

25.7 km/h aus S

10.1 C

9.4 C

9.4 C

12.1 C

0 W/m

0.00 mm

23:25

12.1 C

1003.0 hpa

89 %

16.1 km/h aus 116

29.0 km/h aus SSW

10.4 C

9.9 C

9.9 C

12.2 C

0 W/m

0.25 mm

23:30

12.1 C

1002.9 hpa

89 %

17.7 km/h aus 115

27.4 km/h aus SSW

10.4 C

9.6 C

9.6 C

12.2 C

0 W/m

0.00 mm

23:35

12.1 C

1002.9 hpa

89 %

19.3 km/h aus 115

33.8 km/h aus SSW

10.4 C

9.3 C

9.3 C

12.2 C

0 W/m

0.00 mm

23:40

12.1 C

1002.9 hpa

90 %

20.9 km/h aus 117

43.5 km/h aus SSE

10.5 C

9.0 C

8.9 C

12.1 C

0 W/m

0.51 mm

23:45

12.0 C

1002.4 hpa

90 %

16.1 km/h aus 117

27.4 km/h aus SSW

10.4 C

9.8 C

9.7 C

12.1 C

0 W/m

0.00 mm

23:50

12.0 C

1002.4 hpa

90 %

14.5 km/h aus 117

24.1 km/h aus S

10.4 C

10.1 C

10.1 C

12.1 C

0 W/m

0.00 mm

23:55

12.0 C

1002.4 hpa

91 %

20.9 km/h aus 115

40.2 km/h aus SSW

10.6 C

8.9 C

8.9 C

12.1 C

0 W/m

0.51 mm